This is the latest recevied weather packets stored in our database for station/object DO7CRZ-11. If no packets are shown the sender has not sent any weather packets the latest 10 day(s).
| Time | Temp. | Humidity | Pressure | Rain* | Wind** | Luminosity | Snow |
|---|---|---|---|---|---|---|---|
| 1778037127 | 11.67° C | 93% | 1005.4 hPa | 0 mm | - | 0 W/m² | - |
| 1778035934 | 12.22° C | 92% | 1005.4 hPa | 0 mm | - | 0 W/m² | - |
| 1778035328 | 12.22° C | 92% | 1005.4 hPa | 0 mm | - | 0 W/m² | - |
| 1778034736 | 12.22° C | 92% | 1005.5 hPa | 0 mm | - | 0 W/m² | - |
| 1778034139 | 12.22° C | 92% | 1005.4 hPa | 0 mm | - | 0 W/m² | - |
| 1778033530 | 12.78° C | 92% | 1005.4 hPa | 0 mm | - | 0 W/m² | - |
| 1778032930 | 12.78° C | 92% | 1005.4 hPa | 0 mm | - | 0 W/m² | - |
| 1778031131 | 12.78° C | 91% | 1005.7 hPa | 0.51 mm | - | 0 W/m² | - |
| 1778030534 | 12.78° C | 91% | 1005.7 hPa | 1.02 mm | - | 0 W/m² | - |
| 1778029928 | 12.78° C | 91% | 1005.7 hPa | 1.52 mm | - | 0 W/m² | - |
| 1778029331 | 12.78° C | 91% | 1005.5 hPa | 1.78 mm | - | 0 W/m² | - |
| 1778028736 | 12.78° C | 91% | 1005.6 hPa | 1.78 mm | - | 0 W/m² | - |
| 1778028127 | 12.78° C | 90% | 1006 hPa | 1.52 mm | - | 0 W/m² | - |
| 1778026936 | 12.78° C | 89% | 1006.7 hPa | 1.78 mm | - | 0 W/m² | - |
| 1778026327 | 12.78° C | 89% | 1006.8 hPa | 4.83 mm | - | 0 W/m² | - |
| 1778025731 | 12.78° C | 89% | 1006.9 hPa | 7.87 mm | - | 0 W/m² | - |
| 1778025134 | 12.78° C | 89% | 1006.8 hPa | 8.38 mm | - | 0 W/m² | - |
| 1778024527 | 12.78° C | 89% | 1006.7 hPa | 8.38 mm | - | 0 W/m² | - |
| 1778023334 | 13.33° C | 88% | 1007.6 hPa | 7.62 mm | - | 0 W/m² | - |
| 1778022727 | 13.33° C | 86% | 1007.5 hPa | 4.32 mm | - | 0 W/m² | - |
| 1778022130 | 13.33° C | 85% | 1007.3 hPa | 0.51 mm | - | 0 W/m² | - |
| 1778021535 | 13.89° C | 85% | 1007.3 hPa | 0.25 mm | - | 0 W/m² | - |
| 1778020926 | 13.89° C | 85% | 1006.5 hPa | 0.25 mm | - | 0 W/m² | - |
| 1778020329 | 13.89° C | 84% | 1006.3 hPa | 0 mm | - | 0 W/m² | - |
| 1778019733 | 14.44° C | 84% | 1006.2 hPa | 0 mm | - | 0 W/m² | - |
* Rain latest hour (hover to see other rain measurements)
** Current wind speed in m/s (hover to see current wind gust speed)